{"data":{"norad_id":68827,"intl_designator":"2026-090B","name":"COSMOS 2616","alt_names":[],"object_type":"PAYLOAD","status":"ACTIVE","operator":null,"country":"CIS","launch_date":"2026-04-23","launch_site_code":"PLMSC","launch_vehicle":null,"mission":null,"orbit_class":"UNKNOWN","rcs_meters":null,"size_class":null,"mass_kg":null,"dimensions":null,"purposes":[],"wikipedia_slug":null,"has_3d_model":false,"image_url":null,"decayed_at":null,"tle_current":{"epoch":"2026-09-20T01:19:28.916256Z","epoch_age_seconds":94586,"freshness":"FRESH","line1":"1 68827U 26090B   26263.05519579  .00036972  22985-5  14655-3 0  9990","line2":"2 68827  96.6360 178.0029 0014594  46.5819 313.6666 15.86812247 23691","mean_motion":15.86812247,"eccentricity":0.0014594,"inclination_deg":96.636,"raan_deg":178.0029,"arg_perigee_deg":46.5819,"mean_anomaly_deg":313.6666,"bstar":0.00014655,"rev_number":2369,"period_min":90.747976184482,"perigee_km":301.46428957185,"apogee_km":320.98920447667,"semimajor_km":6689.3637470243,"source":"CELESTRAK","updated_at":"2026-09-20T09:00:24.494426Z"}}}